Regional Weather Roundup
Issued by NWS

Home | Current Version | Previous Version | Text Only | Print | Product List | Glossary On
Versions: 1 2 3 4 5 6 7 8 9 10 11 12 13 14 15 16 17 18 19 20 21 22 23 24 25 26 27 28 29 30 31 32 33 34 35 36 37 38 39 40 41 42 43 44 45 46 47 48 49 50
000
ASHW40 PHFO 311943
RWRHI

WEATHER ROUNDUP FOR HAWAII
NATIONAL WEATHER SERVICE HONOLULU HI
900 AM HST MON AUG 31 2015

THIS IS AN AUTOMATED REPORT THAT HAS NOT BEEN QUALITY CONTROLLED.

NOTE..."FAIR" INDICATES FEW OR NO CLOUDS BELOW 12,000 FEET WITH NO
SIGNIFICANT WEATHER AND/OR OBSTRUCTIONS TO VISIBILITY.

* - THESE SITES REPORT LIMITED FIELDS

HIZ001>004-312000-
KAUAI-NIIHAU-

CITY           SKY/WX    TMP DP  RH WIND       PRES   REMARKS
LIHUE APT      CLOUDY    82  79  89 NE14      29.95R HX  93
PORT ALLEN*    NOT AVBL
POIPU*           N/A     77 N/A N/A NE6G14      N/A
PRINCEVILLE*     N/A     81 N/A N/A MISG        N/A
KOKOLE POINT*  NOT AVBL
MOLOAA DAIRY*    N/A     81  79  94 E3G17       N/A
WAIMEA HTS*      N/A     79  73  83 NE2         N/A
PUU OPAE*        N/A     73  70  88 NE5         N/A
PUU LUA*       NOT AVBL
MAKAHA RIDGE*    N/A     81  73  78 NE1         N/A
$$

HIZ005>011-312000-
OAHU-

CITY           SKY/WX    TMP DP  RH WIND       PRES   REMARKS
HONOLULU       MOSUNNY   82  75  79 E12       29.90S
KALAELOA       SUNNY     85  73  67 VRB5      29.92S HX  91
KANEOHE MCB    SUNNY     84  76  76 NE9       29.89S HX  93
WHEELER FIELD  FAIR      81  74  79 NE6       29.93R
BELLOWS*         N/A    N/A N/A N/A NE14        N/A
KAHUKU*          N/A    N/A N/A N/A NE7G14      N/A
WHEELER*       NOT AVBL
WAIANAE HARBOR NOT AVBL
DILLINGHAM*      N/A     73  64  73 MISG        N/A
KAHUKU TRN*      N/A     75  70  83 E8G17       N/A
KAWAILOA*        N/A     79  73  83 E7          N/A
KII*             N/A     84  77  79 E12         N/A  HX  94
MAKUA RANGE*     N/A     86  72  62 NE8         N/A  HX  92
OAHU FOREST NW   N/A     72  72 100 CALM        N/A
SCHOFIELD BRK*   N/A     72  64  78 CALM        N/A
SCHOFIELD S*   NOT AVBL
WAIANAE VLY*     N/A     90  72  55 MISG        N/A  HX  96
KUAOKALA*        N/A     81  75  83 N8G16       N/A
HONOULIUULI*   NOT AVBL
MOKUOLOE IS*     N/A    N/A N/A N/A MISG        N/A
PALEHUA*         N/A     77  68  73 NE6G13      N/A
WAIAWA PHB*    NOT AVBL
$$

HIZ012>013-312000-
MOLOKAI-

CITY           SKY/WX    TMP DP  RH WIND       PRES   REMARKS
MOLOKAI AIRPT  LGT RAIN  81  76  84 N8G16     29.93S
KALAUPAPA      NOT AVBL
MAKAPULAPAI*     N/A     82  79  89 E9          N/A  HX  93
MOLOKAI 1*       N/A     81  73  78 E1G12       N/A
PUU ALII*        N/A     67  67 100 E3          N/A
$$

HIZ016-312000-
KAHOOLAWE-

CITY           SKY/WX    TMP DP  RH WIND       PRES   REMARKS
KAHOOLAWE*       N/A     77 N/A N/A N14G22      N/A
HAKIOAWA*        N/A     81  77  88 MISG      30.34S
HONOKANAIA*      N/A     84  74  73 W6G12     29.83R HX  91
KANELOA*         N/A     81  75  83 N14G29    29.96R
KEALIALALO*      N/A     82  75  78 NE13G21   29.91S
LUA MAKIKA*    NOT AVBL
$$

HIZ014>015-312000-
LANAI-

CITY           SKY/WX    TMP DP  RH WIND       PRES   REMARKS
LANAI CITY     PTSUNNY   80  72  76 E13       29.97R
LANAI 1*         N/A     75  68  78 NE17G28     N/A
$$

HIZ017>028-312000-
MAUI-

CITY           SKY/WX    TMP DP  RH WIND       PRES   REMARKS
KAHULUI        MOSUNNY   84  76  76 N9        29.91S HX  93
KAPALUA-W MAUI MOSUNNY   84  75  74 N12       29.92R HX  92
HANA AIRPORT   PTSUNNY   82  77  83 NW3       29.94S HX  91
HANA*            N/A     82 N/A N/A NW6         N/A
HALEAKALA SUMM   N/A     52  46  82 NE14G26     N/A
MAALAEA BAY*   NOT AVBL
HALEAKALA*     NOT AVBL
KAUPO GAP*       N/A     75  66  73 SE3         N/A
KULA 1*          N/A     67  58  72 W3          N/A
$$

HIZ023>026-312000-
BIG ISLAND OF HAWAII COAST AND LOWER SLOPES-

CITY           SKY/WX    TMP DP  RH WIND       PRES   REMARKS
KAILUA KONA    MOSUNNY   84  75  74 SW5       29.88R HX  92
HILO           MOSUNNY   86  76  71 N12G22    29.87S HX  96
HONOKAA*       NOT AVBL
KAWAIHAE MWT*    N/A     84 N/A N/A W6          N/A
KAWAIHAE*        N/A     82 N/A N/A W5          N/A
SOUTH POINT*     N/A     79 N/A N/A W1G7        N/A
UPOLU AIRPORT*   N/A    N/A N/A N/A NE9         N/A
KAMUELA*       NOT AVBL
HAKALAU*         N/A     70  57  63 N8G15       N/A
KALOKO-HONOKO*   N/A     86  75  70 SW6       29.88R HX  95
PALI 2*          N/A     81  66  61 SE3         N/A
KEALAKOMO*     NOT AVBL
KAUPULEHU*       N/A     84  72  65 NW6G12      N/A
KAPAPALA*        N/A     83  70  65 S3          N/A
LOWER KAHUKU*    N/A     73 N/A N/A S1          N/A
PUHE CS*         N/A     84  73  70 W3          N/A  HX  91
PUHO CS*         N/A     86  74  66 NE1         N/A  HX  94
PTA KEAMUKU*     N/A     75  64  69 CALM        N/A
WAIKOLOA*        N/A     84  72  65 W7          N/A
$$

HIZ027>028-312000-
BIG ISLAND OF HAWAII INTERIOR AND SUMMMITS-

CITY           SKY/WX    TMP DP  RH WIND       PRES   REMARKS
BRADSHAW FIELD SUNNY     68  52  56 SW2       30.29S
MK VISITOR CEN   N/A     55  48  76 S3          N/A
MAUNA KEA*       N/A     41  32  70 N1          N/A
MAUNA LOA*       N/A     52  37  58 MISG        N/A
MAUNA LOA 1*   NOT AVBL
PTA KIPUKA*      N/A     70  59  68 W3          N/A
PTA RANGE 17*    N/A     70  50  49 NE3         N/A
PTA WEST*        N/A     75  57  53 NW7         N/A
NENE CABIN*      N/A     64  48  55 E3G9        N/A
AHUMOA*          N/A     67  60  77 N10         N/A
PTA PORTABLE*  NOT AVBL
PUU MALI*        N/A     70  55  60 N5G12       N/A
$$

HIC003-312000-
NORTHWEST ISLANDS-

CITY           SKY/WX    TMP DP  RH WIND       PRES   REMARKS
MIDWAY ISLAND  MOSUNNY   84  79  84 SE8       29.95R HAZE    HX  96
MIDWAY NOS*    NOT AVBL
FRENCH FRIGATE NOT AVBL
$$

PHZ110>124-180-312000-
BUOY REPORTS

STATION/POSITION TIME  TEMP    WIND        PRES    WAVE   SWELL
                       AIR SEA DIR/SP/G            HT/PER HT/DIR
                 (UTC) (F)     (DEG/KT/KT) (MB)    (FT/S) (FT/D)
BUOY 51001       1858   82 82   90/ 16/ 19 1015.6
BUOY 51101       1900   82 82  100/ 16/ 19 1014.8R   7/10   5/ 60
BUOY 51100       NOT AVBL
BUOY 51002       1900   83 83   10/  6/  8 1012.5R   6/12   5/270
BUOY 51003       1900   83 85   40/  6/  8 1012.8R   6/11   5/150
BUOY 51004       1825   82 83  280/  8/ 12 1011.3R  11/12  11/ 30
BARBERS PT BUOY  NOT AVBL
WAIMEA BAY BUOY  1900      82                N/A     7/ 8   2/ 10
KAILUA BAY BUOY  1900      83                N/A     6/ 8   3/ 20
LANAI BUOY       NOT AVBL
BARBERS PT 2     1900      83                N/A     3/12   3/200
PAUWELA MAUI     1900      82                N/A     7/13   5/100
HILO             NOT AVBL
KANEOHE BAY BUOY 1900      82                N/A     6/ 8   2/ 30
HANALEI KAUAI    1900      82                N/A     7/ 8   2/ 20
KAHULUI HARBOR   1900   81 84  330/  9/ 10 1012.7R
HONOLULU HARBOR  1900   85 83   60/  5/ 10 1012.9S
KILO NALU        NOT AVBL
HILO HARBOR      1900   82 81   10/ 22/ 25 1011.2R
MOKUOLOE         1900      85              1013.2S
NAWILIWILI       1900   81 85   70/ 13/ 16 1013.8R
WHOTS BUOY       NOT AVBL
BUOY 51028       NOT AVBL
$$

......................KEY........................................
  SKY/WX - SKY CONDITIONS/PRESENT WEATHER
  TMP    - TEMPERATURE IN FAHRENHEIT
  DWPT   - DEWPOINT IN FAHRENHEIT
  RH     - RELATIVE HUMIDITY IN PERCENT
  WIND   - DIRECTION AND SPEED /MPH FOR ISLANDS...KTS FOR BUOYS/
  PRES   - MEAN SEA LEVEL PRESSURE IN INCHES OF HG
  VSB    - VISIBILITY IN MILES
  HX     - HEAT INDEX
  WCI    - WIND CHILL INDEX
  VRB    - VARIABLE WIND DIRECTION
  N/A    - NOT AVAILABLE


USA.gov is the U.S. government's official web portal to all federal, state and local government web resources and services.